Location: Newark
(41.1142°N, 73.9831°W)
Time: 08:45:58
(UTC+00:00)

N. Korean satellite - Pass Details

Date: 28 September 2019
Orbit: 455 x 508 km, 97.2° (Epoch: 19 October)

Event Time Altitude Azimuth Distance (km) Brightness Sun altitude
Rises 23:10:07 0° 212° (SSW) 2,515 10.6 -5.9°
Reaches altitude 10° 23:13:20 10° 245° (WSW) 1,631 10.4 -6.5°
Maximum altitude 23:14:42 12° 268° (W) 1,515 10.8 -6.8°
Drops below altitude 10° 23:16:04 10° 291° (WNW) 1,626 10.7 -7.0°
Sets 23:19:17 0° 325° (NW) 2,498 10.8 -7.6°
